カタログに戻る

FENGYUN 1C DEB

運用中LEO
NORAD 30531·DEBRIS·🇨🇳 China

打ち上げ May 10, 1999 から Taiyuan Satellite Launch Center

Loading…

次のパス (今後24時間)

TLE

最新Source: Space-Track

元期: Sep 14, 2026, 09:25 UTC

1 30531U 99025AJV 26257.39239575  .00015691  00000-0  25013-2 0  9997
2 30531 102.3070 225.3371 0021561 167.6768 192.4955 14.71961723 17303

AllMySatでFENGYUN 1C DEBをリアルタイム追跡

Download on the App Store